Regional Weather Roundup
Issued by NWS

Home | Current Version | Previous Version | Graphics & Text | Print | Product List | Glossary On
Versions: 1 2 3 4 5 6 7 8 9 10 11 12 13 14 15 16 17 18 19 20 21 22 23 24 25 26 27 28 29 30 31 32 33 34 35 36 37 38 39 40 41 42 43 44 45 46 47 48 49 50
000
ASUS45 KBOU 290807
RWRCO

WEATHER ROUNDUP FOR COLORADO
NATIONAL WEATHER SERVICE DENVER/BOULDER CO
200 AM MDT SAT AUG 29 2015

NOTE: "FAIR" INDICATES FEW OR NO CLOUDS BELOW 12000 FEET WITH NO
SIGNIFICANT WEATHER AND/OR OBSTRUCTIONS TO VISIBILITY.

COZ001>005-013-030-031-290900-
...NORTHWEST COLORADO...

CITY           SKY/WX    TMP DP  RH WIND       PRES   REMARKS
CRAIG          CLEAR     48  43  82 CALM      30.31S
HAYDEN         NOT AVBL
MEEKER         CLEAR     49  42  77 NE6       30.32F
MOUNT WERNER   NOT AVBL
STEAMBOAT SPGS CLEAR     50  43  76 CALM      30.37S
WALDEN         CLEAR     41  36  81 CALM      30.46S
$$

COZ006>008-011-290900-
...WEST CENTRAL VALLEYS...

CITY           SKY/WX    TMP DP  RH WIND       PRES   REMARKS
GRAND JUNCTION CLEAR     64  45  49 SE13      30.17S
MONTROSE       MOCLDY    62  46  55 E7        30.28R
EAGLE          CLEAR     52  43  71 CALM      30.39S
RIFLE          CLEAR     58  46  64 SW3       30.26S
DELTA          CLEAR     63  49  60 E8        30.23S
NUCLA          CLEAR     59  39  47 SE9       30.28F
$$

COZ017>023-064>068-290900-
...SOUTHWEST COLORADO...

CITY           SKY/WX    TMP DP  RH WIND       PRES   REMARKS
DURANGO        PTCLDY    54  45  71 NE5       30.32R
CORTEZ         CLEAR     52  43  71 E6        30.23S
PAGOSA SPRINGS MOCLDY    58  44  59 CALM      30.40S
TELLURIDE      CLEAR     52  41  65 SE7       30.50F
WOLF CREEK PAS CLOUDY    45  37  76 NE9       30.73F
$$

COZ009-010-012-014-032>034-037-058>063-290900-
...CENTRAL COLORADO...

CITY           SKY/WX    TMP DP  RH WIND       PRES   REMARKS
ASPEN          CLEAR     49  42  77 S5        30.42F
BUENA VISTA    CLEAR     52  44  75 NW5       30.49S
COPPER MTN     CLEAR     48  34  57 SE15      30.72F
BERTHOUD PASS  FAIR      39  28  65 SE9       30.76F
COTTONWOOD PAS CLEAR     55  37  50 W8        30.60F
GUNNISON       CLEAR     50  39  66 N9        30.47S
KREMMLING      CLEAR     46  41  81 CALM      30.46S
LEADVILLE      CLEAR     44  37  76 E6        30.59F
MONARCH PASS   CLEAR     43  36  75 E15       30.82F
SALIDA         CLEAR     56  44  62 SW8       30.53S
SUNLIGHT       CLEAR     50  37  62 NE6       30.64F
WILKERSON PASS PTCLDY    46  36  66 SW5       30.72F
$$

COZ069>075-290900-
...SAN LUIS VALLEY/SANGRE DE CRISTO MOUNTAINS...

CITY           SKY/WX    TMP DP  RH WIND       PRES   REMARKS
ALAMOSA        MOCLDY    61  42  49 SE12      30.41S
LA VETA PASS   MOCLDY    50  37  62 MISG      30.61S
SAGUACHE       NOT AVBL
$$

COZ035-036-038>040-290900-
...NORTHERN COLORADO FRONT RANGE...

CITY           SKY/WX    TMP DP  RH WIND       PRES   REMARKS
DENVER INTL AP PTCLDY    65  38  36 SW12      30.28F
DMNS CITY PARK   N/A     63  47  54 SE8       30.28S
AURORA         CLEAR     60  41  48 S9        30.30F
FRONT RANGE AP NOT AVBL
ERIE MUNI ARPT CLEAR     56  49  78 CALM      30.26F
BOULDER MUN AP CLEAR     66  43  42 S3        30.27F
CENTENNIAL     PTCLDY    59  43  55 SE5       30.32F
BROOMFIELD     CLEAR     63  43  48 CALM      30.30F
FORT COLLINS   CLEAR     61  46  59 N7        30.27S
LONGMONT       CLEAR     61  48  62 SW5       30.27F
$$

COZ041-046-047-076>085-087-088-290900-
...PIKES PEAK/PALMER DIVIDE AND SOUTHERN FOOTHILLS...

CITY           SKY/WX    TMP DP  RH WIND       PRES   REMARKS
COLO. SPRINGS  PTCLDY    56  43  61 N6        30.36F
A. F. ACADEMY  PTCLDY    52  44  76 N12       30.37F
ELLICOTT       PTCLDY   N/A N/A N/A E9        30.33S
FALCON         CLEAR     54  44  68 MISG      30.40F
FORT CARSON    PTCLDY    59  47  65 NW8       30.32F
LIMON          CLEAR     48  44  86 N3        30.29F
MONUMENT HILL  CLEAR     52  39  62 S8        30.40F
TRINIDAD       CLEAR     61  49  64 W9        30.30F
$$

COZ042>045-048>051-090-091-290900-
...NORTHEAST COLORADO...

CITY           SKY/WX    TMP DP  RH WIND       PRES   REMARKS
GREELEY ARPT   CLEAR     54  48  82 NW3       30.25F
AKRON          CLEAR     66  50  56 S10       30.23F
BURLINGTON     CLEAR     54  48  80 W5        30.22S
WRAY           CLEAR     60  53  78 SW5       30.18F
STERLING       CLEAR     54  45  71 W6        30.18S
HOLYOKE        CLEAR     59  54  82 SW3       30.18S
FORT MORGAN    CLEAR     57  44  62 W8        30.23F
$$

COZ086-089-092>099-290900-
...SOUTHEAST COLORADO...

CITY           SKY/WX    TMP DP  RH WIND       PRES   REMARKS
PUEBLO         CLEAR     65  46  50 NW5       30.25R
LA JUNTA       CLEAR     62  47  57 N6        30.21R
LAMAR          CLEAR     62  52  69 CALM      30.16S
SPRINGFIELD      N/A     64  54  69 NE6       30.20S
$$



USA.gov is the U.S. government's official web portal to all federal, state and local government web resources and services.